Location: Buchloe
(48.0161°N, 10.7316°E)
Time: 09:39:59
(UTC+02:00)

ISS - Pass Details

Date: 26 May 2018
Orbit: 402 x 407 km, 51.6° (Epoch: 27 May)

Event Time Altitude Azimuth Distance (km) Brightness Sun altitude
Rises 22:43:08 0° 272° (W) 2,318 0.6 -12.9°
Reaches altitude 10° 22:45:16 10° 279° (W) 1,458 -0.4 -13.1°
Maximum altitude 22:48:25 44° 354° (N) 572 -2.6 -13.4°
Drops below altitude 10° 22:51:34 10° 68° (ENE) 1,458 -1.1 -13.7°
Sets 22:53:43 0° 75° (ENE) 2,318 -0.2 -13.9°
Enters shadow 22:53:48 - 75° (ENE) 2,356 -0.1 -13.9°
